Flag for Russia Weather past 2 weeks in Penza, Russia

Now
86 °F

Sunny.


Feels Like: 84 °F
Forecast: 64 / 93 °F
Wind: 10 mph from South

Location: Saratov / Tsentralny

Current Time: Jul 30, 2014 at 3:46:50 PM

Latest Report: Jul 30, 2014 at 3:00 PM


Visibility: 10 mi

Pressure: 30.07 "Hg

Humidity: 29%

Dew point: 50 °F

Location of PenzaLocation

Historic Weather in Penza — Graph

°F

Penza temperature yesterday

Maximum temperature yesterday: 81 °F (at 4:00 PM)
Minimum temperature yesterday: 59 °F (at 5:00 AM)
Average temperature yesterday: 71 °F

Past Weeks' High & Low Weather Summary

 TemperatureHumidityPressure
High91 °F (Jul 16, 3:00 PM)100% (Jul 25, 7:30 AM)30.15 "Hg (Jul 25, 7:30 AM)
Low54 °F (Jul 22, 5:00 AM)22% (Jul 22, 6:00 PM)29.80 "Hg (Jul 21, 5:00 AM)
Average72 °F47%29.97 "Hg
* Reported Jul 15 2:00 PM — Jul 30 2:30 PM, Penza, Weather by CustomWeather, © 2014

Note: Actual official high and low records may vary slightly from our data, if they occured in-between our weather recording intervals... More about our weather records

Advertising

Penza weather history for previous 24 hours

 ConditionsComfort  
Time TempWeatherWind HumidityBarometerVisibility
2:30 PM
Jul 30
86 °FSunny.10 mph29%30.09 "Hg10 mi
2:00 PM86 °FSunny.8 mph29%30.09 "Hg10 mi
1:30 PM86 °FSunny.10 mph29%30.09 "Hg10 mi
1:00 PM86 °FSunny.6 mph29%30.09 "Hg10 mi
12:30 PM82 °FSunny.6 mph32%30.09 "Hg10 mi
12:00 PM84 °FSunny.6 mph31%30.09 "Hg10 mi
11:30 AM82 °FSunny.6 mph32%30.09 "Hg10 mi
11:00 AM82 °FSunny.3 mph32%30.09 "Hg10 mi
10:30 AM79 °FSunny.3 mph37%30.09 "Hg10 mi
10:00 AM79 °FSunny.1 mph37%30.09 "Hg10 mi
9:30 AM75 °FSunny.3 mph36%30.09 "Hg10 mi
9:00 AM75 °FSunny.1 mph36%30.09 "Hg10 mi
8:30 AM72 °FSunny.3 mph44%30.09 "Hg10 mi
8:00 AM72 °FSunny.3 mph44%30.09 "Hg10 mi
7:30 AM68 °FSunny.3 mph43%30.07 "Hg10 mi
7:00 AM68 °FSunny.3 mph43%30.07 "Hg10 mi
6:30 AM66 °FSunny.3 mph43%30.07 "Hg10 mi
6:00 AM66 °FClear.3 mph43%30.07 "Hg10 mi
5:30 AM68 °FClear.3 mph40%30.07 "Hg10 mi
5:00 AM68 °FClear.3 mph40%30.07 "Hg10 mi
4:30 AM70 °FClear.3 mph40%30.07 "Hg10 mi
4:00 AM70 °FClear.6 mph40%30.07 "Hg10 mi
3:30 AM70 °FClear.6 mph46%30.07 "Hg10 mi
3:00 AM70 °FClear.8 mph46%30.07 "Hg10 mi
2:30 AM70 °FClear.8 mph46%30.07 "Hg10 mi
2:00 AM70 °FClear.6 mph46%30.07 "Hg10 mi
1:30 AM72 °FClear.8 mph50%30.07 "Hg10 mi
1:00 AM72 °FClear.6 mph50%30.07 "Hg10 mi
12:30 AM72 °FClear.3 mph50%30.07 "Hg10 mi
12:00 AM72 °FClear.3 mph50%30.07 "Hg10 mi
11:30 PM
Jul 29
72 °FClear.3 mph47%30.07 "Hg10 mi
11:00 PM72 °FClear.3 mph47%30.07 "Hg10 mi
10:30 PM72 °FClear.3 mph47%30.07 "Hg10 mi
10:00 PM72 °FClear.3 mph47%30.07 "Hg10 mi
9:30 PM75 °FSunny.3 mph41%30.04 "Hg10 mi
9:00 PM75 °FSunny.3 mph41%30.04 "Hg10 mi
8:30 PM77 °FSunny.3 mph39%30.07 "Hg10 mi
8:00 PM77 °FSunny.3 mph39%30.07 "Hg10 mi
7:30 PM79 °FSunny.3 mph37%30.07 "Hg10 mi
7:00 PM79 °FSunny.3 mph37%30.07 "Hg10 mi
6:30 PM79 °FSunny.3 mph34%30.07 "Hg10 mi
6:00 PM79 °FSunny.6 mph34%30.07 "Hg10 mi
5:30 PM79 °FSunny.10 mph37%30.09 "Hg10 mi
5:00 PM79 °FSunny.10 mph37%30.09 "Hg10 mi
4:30 PM81 °FSunny.8 mph34%30.09 "Hg10 mi
4:00 PM81 °FSunny.8 mph34%30.09 "Hg10 mi
3:30 PM79 °FSunny.6 mph37%30.12 "Hg10 mi
3:00 PM79 °FSunny.6 mph37%30.12 "Hg10 mi
Weather by CustomWeather, © 2014

See weather overviewHow to use our weather pages